Bloomington, IN

9:32 AM EST on December 11, 2019 (GMT -0500)
Monroe County

Weather History for KBMG - September, 2019

Change the Weather History Date:

Sunday, September 8, 2019

  Actual Average Record
Temperature  
Mean Temperature 64 °F 69 °F  
Max Temperature 75 °F 81 °F 93 °F (2002)
Min Temperature 53 °F 56 °F 45 °F (2017)
Degree Days  
Heating Degree Days 0 1  
Month to date heating degree days 0 4  
Since 1 July heating degree days 0 11  
Cooling Degree Days 0 5  
Month to date cooling degree days 38 43  
Year to date cooling degree days 1010 860  
Growing Degree Days 14 (Base 50)    
Moisture  
Dew Point 58 °F    
Average Humidity 85    
Maximum Humidity 100    
Minimum Humidity 57    
Precipitation  
Precipitation T in 0.12 in 5.71 in (2018)
Month to date precipitation 0.87 0.85  
Year to date precipitation 37.09 34.04  
Sea Level Pressure  
Sea Level Pressure 30.07 in    
Wind  
Wind Speed 1 mph ()    
Max Wind Speed 12 mph    
Max Gust Speed 15 mph    
Visibility 6.4 miles    
Events Rain    
T = Trace of Precipitation, MM = Missing Value Source: Averaged Metar Reports

Daily Weather History Graph

Daily Weather History Graph

Search for Another Location

Airport or City:

Astronomy

Sep. 08, 2019 Rise Set
Actual Time 7:21 AM EDT 8:06 PM EDT
Civil Twilight 6:54 AM EDT 8:33 PM EDT
Nautical Twilight 6:22 AM EDT 9:05 PM EDT
Astronomical Twilight 5:49 AM EDT 9:38 PM EDT
Moon 5:12 PM EDT (9/8) 2:02 AM EDT (9/8)
Length of Visible Light 13h 39m
Length of Day
12h 45m
Waxing Gibbous, 75% of the Moon is Illuminated
Sep 8
Waxing Gibbous
Sep 14
Full
Sep 21
Last Quarter
Sep 28
New
Oct 5
First Quarter

Hourly Weather History & Observations

Time (EDT) Temp. Dew Point Humidity Pressure Visibility Wind Dir Wind Speed Gust Speed Precip Events Conditions
12:53 AM 57.9 °F 55.9 °F 93% 30.04 in 10.0 mi Calm Calm - N/A   Clear
1:53 AM 57.0 °F 55.0 °F 93% 30.04 in 3.0 mi Calm Calm - N/A   Clear
2:27 AM 57.0 °F 55.0 °F 93% 30.05 in 2.5 mi Calm Calm - N/A   Clear
2:36 AM 57.0 °F 54.0 °F 89% 30.05 in 1.5 mi Calm Calm - N/A   Clear
2:41 AM 57.0 °F 55.0 °F 93% 30.05 in 4.0 mi Calm Calm - N/A   Clear
2:48 AM 57.2 °F 55.4 °F 94% 30.05 in 1.8 mi Calm Calm - N/A   Clear
2:53 AM 55.9 °F 55.0 °F 97% 30.03 in 1.0 mi Calm Calm - N/A   Clear
3:08 AM 55.9 °F 55.0 °F 97% 30.05 in 3.0 mi Calm Calm - N/A   Clear
3:19 AM 55.9 °F 54.0 °F 93% 30.04 in 1.8 mi Calm Calm - N/A   Clear
3:30 AM 55.0 °F 54.0 °F 96% 30.04 in 0.8 mi Calm Calm - N/A   Mist
3:53 AM 55.0 °F 54.0 °F 96% 30.03 in 1.5 mi NNW 3.5 mph - N/A   Partly Cloudy
4:12 AM 55.0 °F 54.0 °F 96% 30.04 in 4.0 mi Calm Calm - N/A   Clear
4:53 AM 55.9 °F 54.0 °F 93% 30.02 in 8.0 mi Calm Calm - N/A   Clear
5:53 AM 57.0 °F 55.0 °F 93% 30.05 in 10.0 mi Calm Calm - N/A   Partly Cloudy
6:53 AM 55.9 °F 54.0 °F 93% 30.05 in 10.0 mi Calm Calm - N/A   Clear
7:53 AM 57.9 °F 55.9 °F 93% 30.09 in 10.0 mi Calm Calm - N/A   Mostly Cloudy
8:53 AM 63.0 °F 60.1 °F 90% 30.10 in 10.0 mi Calm Calm - N/A   Overcast
9:53 AM 68.0 °F 60.1 °F 76% 30.09 in 10.0 mi Calm Calm - 0.00 in   Scattered Clouds
10:53 AM 71.1 °F 60.1 °F 68% 30.07 in 10.0 mi East 3.5 mph - N/A   Clear
11:53 AM 72.0 °F 61.0 °F 68% 30.09 in 10.0 mi SSW 8.1 mph - N/A   Partly Cloudy
12:53 PM 71.1 °F 61.0 °F 70% 30.13 in 10.0 mi WSW 5.8 mph - N/A   Scattered Clouds
1:53 PM 71.1 °F 61.0 °F 70% 30.09 in 10.0 mi South 3.5 mph - 0.00 in Rain Light Rain
2:53 PM 72.0 °F 60.1 °F 66% 30.08 in 10.0 mi SE 3.5 mph - 0.00 in   Partly Cloudy
3:53 PM 73.9 °F 60.1 °F 62% 30.05 in 10.0 mi SSE 6.9 mph - N/A   Clear
4:53 PM 75.0 °F 60.1 °F 60% 30.05 in 10.0 mi Variable 6.9 mph - N/A   Clear
5:53 PM 75.0 °F 59.0 °F 57% 30.05 in 10.0 mi SSE 5.8 mph - N/A   Clear
6:53 PM 73.0 °F 62.1 °F 68% 30.07 in 10.0 mi Calm Calm - N/A   Mostly Cloudy
7:53 PM 71.1 °F 64.0 °F 78% 30.08 in 10.0 mi Calm Calm - N/A   Mostly Cloudy
8:53 PM 68.0 °F 64.0 °F 87% 30.08 in 10.0 mi Calm Calm - N/A   Overcast
9:53 PM 66.0 °F 63.0 °F 90% 30.10 in 10.0 mi Calm Calm - N/A   Overcast
10:53 PM 66.9 °F 64.0 °F 90% 30.11 in 10.0 mi Calm Calm - N/A   Mostly Cloudy
11:40 PM 63.0 °F 62.1 °F 97% 30.12 in 1.5 mi Calm Calm - N/A   Clear
11:49 PM 62.6 °F 60.8 °F 94% 30.12 in 0.8 mi Calm Calm - N/A   Clear
11:53 PM 64.0 °F 62.1 °F 93% 30.11 in 1.5 mi Calm Calm - N/A   Clear
11:55 PM 64.0 °F 61.0 °F 90% 30.12 in 3.0 mi Calm Calm - N/A   Clear
11:58 PM 64.0 °F 62.1 °F 93% 30.12 in 1.5 mi Calm Calm - N/A   Clear